Retour au catalogue

STARLINK-37137

ActifCommunicationsSSO
NORAD 68384·PAYLOAD·🇺🇸 United States

Lancé Mar 26, 2026 depuis Vandenberg Space Force Base

Loading…

Prochains Passages (prochaines 24 heures)

TLE

FraisSource: CelesTrak SupGP

Époque: Sep 14, 2026, 21:09 UTC

1 68384C 26063E   26257.88173611  .00034153  00000+0  10600-2 0  2574
2 68384  97.2863  38.8733 0000723  83.1076 184.5052 15.33426948    16

Suivez STARLINK-37137 en temps réel avec AllMySat

Download on the App Store